Location: Carrières
(48.9495°N, 2.0407°E)
Time: 18:31:51
(UTC+00:00)

Courier 1B Rocket - Visible Passes

Search period start: 19 April 2024 00:00
Search period end: 29 April 2024 00:00
Orbit: 920 x 1201 km, 28.2° (Epoch: 18 April)

Date Brightness Start Highest point End Pass type
(mag) Time Alt. Az. Time Alt. Az. Time Alt. Az.
22 Apr 7.2 03:36:35 10° S 03:38:46 11° SSE 03:40:57 10° SSE visible
24 Apr 7.1 03:25:54 10° SSW 03:29:15 13° S 03:32:33 10° SSE visible
25 Apr 7.1 02:27:52 12° S 02:28:25 12° SSE 02:31:09 10° SSE visible
26 Apr 7.0 03:16:36 11° SSW 03:19:44 15° S 03:23:32 10° SSE visible
27 Apr 7.0 02:19:01 14° S 02:19:01 14° S 02:22:30 10° SE visible
28 Apr 6.9 03:07:48 13° SSW 03:10:12 15° S 03:14:07 10° SSE visible
